SCP
0 0 0 0 0 0 0 0 0 0 0 0 0 -0 -0 -0 -0 -0 0 -0 -0 -0 -0 -0 -0 0 0 0 0 0 0 0 0 0 0 0 0 0 0 0 0 0 0 0 0 0 0
-0 -0 -0 0 0 0 0 0 -0 -0 -0 0 0 -0 -0 -0 -0 -0 -0 -0 -0 -0 -0 -0 0 0 0 0 0 0 0 0 -0 0 0 0 0 0 0 0 0 0 0 0 0 0 0
-0 -0 -0 0 -0 -0 0 0 0 -0 -0 -0 -0 -0 -0 -0 -0 -0 -0 -0 -0 -0 -0 -0 0 0 0 -0 0 0 -0 0 0 0 0 0 0 0 0 0 0 0 0 0 0 0 0
-0 -0 0 0 0 -0 -0 0 -0 -0 -0 -0 -0 -0 -0 -0 -0 -0 -0 -0 -0 -0 -0 -0 0 0 -0 0 0 -0 0 0 0 0 0 0 0 0 0 0 0 0 0 0 0 0 0
0 0 -0 0 0 0 -0 -0 -0 -0 -0 -0 -0 -0 -0 -0 -0 -0 -0 -0 -0 -0 0 0 0 0 0 0 0 0 0 -0 -0 0 0 0 0 0 0 0 0 0 0 0 0 0 0
0 0 0 -0 0 0 0 -0 0 -0 -0 -0 -0 -0 -0 -0 -0 -0 -0 -0 0 0 0 0 0 0 0 0 0 0 0 -0 0 0 0 0 0 0 0 0 0 0 0 0 0 0 0
0 0 0 0 0 0 0 0 0 0 -0 -0 -0 -0 -0 -0 0 -0 -0 0 0 0 0 0 0 0 -0 0 0 0 0 0 0 0 0 -0 0 0 0 0 0 0 0 0 0 0 -0
0 0 0 0 0 0 0 0 0 -0 -0 -0 -0 -0 -0 -0 0 -0 0 0 0 0 0 -0 -0 -0 -0 -0 0 -0 0 0 0 0 0 0 0 0 -0 -0 0 0 0 0 0 0 0
0 0 0 0 0 0 0 0 0 -0 -0 -0 -0 -0 -0 -0 -0 0 0 0 0 0 0 -0 -0 -0 0 0 0 -0 0 0 0 -0 0 0 0 -0 0 0 0 0 0 0 0 0 0
0 0 0 0 0 0 0 0 0 0 0 -0 -0 -0 -0 -0 0 0 0 0 0 0 0 0 0 0 0 0 0 0 0 0 0 0 0 -0 0 -0 0 0 0 0 0 0 0 0 0
0 0 0 0 0 0 0 0 0 0 -0 -0 -0 -0 0 -0 0 0 0 0 0 0 0 0 0 0 0 0 -0 0 0 0 0 0 0 0 -0 -0 0 0 0 0 0 0 0 0 0
0 0 0 0 0 0 0 0 0 0 -0 -0 -0 -0 0 0 0 0 0 -0 0 0 0 0 0 0 0 0 0 0 0 0 0 0 0 0 -0 0 0 0 0 0 0 0 0 0 0
0 0 0 0 0 0 0 0 0 0 -0 -0 -0 -0 0 0 0 0 0 0 0 0 -0 0 0 0 0 0 0 0 0 0 0 0 0 0 0 0 0 0 0 0 0 0 0 0 0
0 0 0 0 0 0 0 0 0 -0 -0 -0 -0 -0 0 0 0 0 0 0 0 -0 -0 0 -0 0 0 0 0 0 -0 0 0 0 0 0 0 0 0 0 0 0 0 0 0 0 0
0 0 0 0 0 0 -0 -0 0 0 0 -0 -0 0 0 0 0 -0 0 0 0 0 -0 -0 0 -0 0 0 -0 -0 0 0 -0 -0 0 0 0 0 0 0 0 0 0 0 0 0 0
0 0 0 0 0 0 0 -0 0 0 0 -0 0 0 0 0 0 0 0 0 0 0 0 0 0 0 0 0 0 0 0 0 0 0 0 0 0 0 0 0 0 0 0 0 0 0 0
0 0 0 0 0 0 0 -0 -0 -0 0 0 0 0 0 0 0 0 0 0 0 -0 0 0 0 0 0 0 0 0 0 -0 0 0 0 0 0 0 0 0 0 0 0 0 0 0 0
0 0 0 0 0 0 0 0 0 -0 -0 -0 0 0 0 0 0 0 0 -0 -0 0 0 0 0 0 0 0 0 0 0 0 0 0 -0 0 0 -0 0 0 0 -0 0 0 0 0 0
0 0 0 0 0 0 0 0 -0 -0 -0 -0 0 0 0 0 0 0 0 0 0 0 0 0 0 0 0 0 0 0 0 0 0 0 0 0 0 0 0 0 0 -0 0 0 -0 -0 -0
0 0 0 0 0 0 0 0 0 0 -0 -0 0 0 -0 0 0 0 0 -0 -0 0 0 0 0 0 0 0 0 0 0 0 0 0 0 0 0 0 0 0 0 0 0 0 0 -0 0
0 0 0 0 0 0 0 0 0 0 0 0 0 0 0 0 -0 0 0 0 0 0 0 0 0 0 0 0 0 0 0 0 0 0 0 0 0 0 -0 0 0 0 -0 0 0 0 0
0 0 0 0 0 0 0 0 0 0 0 0 0 0 0 0 0 0 0 0 0 0 0 -0 0 0 0 0 0 0 0 0 0 0 0 0 0 0 0 -0 -0 -0 -0 0 0 0 0
0 0 0 0 0 0 0 0 0 0 0 0 0 0 0 0 0 0 0 0 -0 0 0 0 0 0 0 0 0 0 0 0 0 0 0 0 0 0 0 -0 0 -0 0 0 0 0 0
0 0 0 0 0 0 0 0 0 0 0 0 0 0 0 0 0 0 0 0 0 0 0 0 0 0 0 0 0 0 0 0 0 0 0 0 0 0 0 0 0 -0 -0 0 0 0 0
0 0 0 0 0 0 0 0 0 0 0 0 0 0 0 0 0 0 0 0 0 0 0 0 0 0 0 0 0 0 0 0 -0 -0 0 0 0 0 0 0 -0 -0 0 0 -0 0 0
0 0 0 0 0 0 0 0 0 0 0 0 0 0 0 0 0 0 0 0 0 0 0 0 0 0 -0 0 0 0 0 0 0 0 0 0 0 0 0 0 0 0 -0 0 -0 0 0
0 0 0 0 0 0 0 0 0 0 0 0 0 0 0 0 0 0 0 0 0 0 0 0 0 0 0 0 0 0 0 0 0 0 0 0 0 0 0 0 0 0 -0 -0 0 0 -0
0 0 0 0 0 0 0 0 0 0 0 0 0 0 0 0 0 0 0 0 0 0 0 0 0 0 0 0 0 0 0 0 0 0 0 0 0 0 0 0 0 -0 -0 -0 0 0 0
0 0 0 0 0 0 0 0 0 0 0 0 0 0 0 0 0 0 0 0 0 0 0 0 0 0 0 0 0 0 0 0 0 0 0 0 0 0 0 0 -0 0 0 0 0 0 -0
Wind_Speed_500mb
58 60 65 66 60 57 56 56 54 52 50 50 49 48 47 44 39 33 29 24 20 22 15 11 11 11 12 11 27 9 6 4 8 12 8 18 34 37 16 19 40 21 25 54 60 68 69
57 61 65 67 62 59 58 56 55 55 55 53 53 50 46 43 35 25 21 17 15 14 12 9 9 10 11 13 12 13 13 14 12 11 11 25 27 32 19 19 10 28 38 38 58 54 53
55 59 63 67 62 61 62 60 57 60 59 55 50 49 46 40 27 18 14 11 10 9 7 9 8 11 18 40 5 11 7 13 7 14 28 28 30 19 31 19 33 39 18 20 24 19 11
52 57 61 64 65 62 63 64 64 64 63 55 49 45 44 33 21 13 9 8 9 8 7 8 9 11 20 3 13 27 23 14 19 23 21 29 24 23 25 34 36 16 16 11 14 15 26
50 54 58 62 65 64 61 62 65 68 67 56 50 43 39 28 17 12 8 7 10 10 4 6 7 11 22 12 22 21 26 29 24 26 17 19 20 18 30 12 14 11 17 18 23 28 28
49 52 56 59 63 66 64 61 63 65 68 59 52 42 34 22 15 15 13 11 17 8 9 12 11 13 18 20 21 19 24 25 26 14 22 26 24 9 9 6 14 17 16 22 31 32 26
49 52 56 59 62 64 67 63 62 63 65 61 52 43 31 16 15 15 18 17 18 2 17 21 14 22 31 4 9 13 20 20 18 24 12 33 8 13 26 27 33 33 34 36 25 24 26
45 51 53 57 61 63 66 65 62 61 60 60 49 43 27 14 12 12 19 17 23 26 33 35 52 53 51 32 15 25 20 27 22 17 20 15 19 30 37 31 30 28 24 16 16 29 22
40 47 54 55 59 63 65 68 66 63 59 56 52 38 24 17 16 19 23 18 29 33 12 40 41 44 41 23 31 35 34 36 18 19 23 21 24 33 30 20 19 17 11 11 23 30 29
45 42 49 55 57 61 65 66 69 65 62 57 52 36 27 23 23 27 33 25 27 32 6 12 18 12 17 17 16 37 34 32 18 25 27 19 20 33 27 28 7 16 17 28 31 19 11
47 47 46 52 56 59 65 68 69 70 66 62 53 44 25 24 26 15 23 34 28 13 8 15 14 24 16 23 18 35 32 28 19 22 19 27 24 27 23 26 14 22 18 24 9 13 12
45 48 47 51 56 59 62 68 71 72 72 69 60 52 35 19 25 17 36 37 21 3 10 8 18 18 17 33 34 31 29 34 29 15 22 25 42 23 29 30 26 17 6 15 15 5 11
44 48 49 48 55 57 64 67 72 73 73 74 68 58 42 27 27 9 28 25 4 7 15 7 4 3 10 16 20 28 28 22 19 14 16 27 33 25 16 25 22 15 4 5 7 10 23
45 44 49 48 52 57 65 70 73 76 72 73 70 55 25 13 9 9 20 6 8 17 15 19 19 26 21 23 24 29 22 20 20 11 13 9 25 20 9 9 2 38 4 6 11 9 16
45 45 43 47 48 56 66 74 78 77 76 76 71 42 10 7 13 5 9 5 9 12 34 21 23 15 16 34 23 27 23 11 19 22 10 4 12 30 17 17 26 20 11 19 18 19 4
43 43 44 41 41 55 65 72 76 83 77 75 75 38 18 7 12 7 3 10 10 23 26 21 14 15 23 27 27 24 14 8 12 10 13 5 18 19 24 10 5 12 12 9 2 8 11
42 44 45 39 38 39 68 67 72 85 80 69 59 24 18 7 12 9 5 10 28 46 26 3 15 23 20 22 22 23 20 27 18 13 6 6 6 15 22 10 20 13 8 5 14 9 9
41 44 44 43 43 38 48 61 65 81 80 66 32 7 11 6 5 9 6 19 32 38 41 16 5 13 15 22 15 24 26 8 12 12 9 8 2 6 13 22 13 8 13 9 1 7 9
40 39 42 43 43 40 42 56 68 66 74 80 56 16 8 10 5 9 19 24 31 27 27 16 7 14 16 18 15 14 19 23 9 7 10 11 9 7 13 9 6 8 5 7 9 12 15
45 43 41 40 44 43 45 49 63 63 55 70 19 7 17 28 22 15 20 24 25 39 31 12 10 20 18 14 14 13 17 16 4 12 31 12 7 10 9 16 6 4 12 18 10 6 5
42 40 38 39 44 48 53 50 55 67 49 44 11 8 25 9 21 32 29 19 28 30 22 33 13 20 17 11 14 15 18 17 26 17 7 5 6 11 18 24 27 26 26 26 27 27 18
48 48 45 42 43 45 48 50 61 62 41 24 17 14 21 29 32 30 23 16 28 22 18 18 12 17 11 10 13 15 12 12 8 7 5 6 6 10 14 22 29 31 32 34 34 38 33
54 50 47 44 42 43 46 50 59 49 36 13 18 22 13 14 16 20 16 38 33 23 12 30 22 12 14 15 27 31 32 29 20 12 9 6 4 10 8 16 29 16 13 8 15 13 14
53 52 47 45 44 41 44 50 48 41 31 22 14 14 13 8 6 16 40 45 32 33 24 38 27 12 13 30 35 34 45 38 30 22 23 9 7 5 9 13 4 5 27 14 18 9 19
46 48 51 51 49 46 48 42 39 35 31 21 12 4 9 8 12 27 35 33 36 43 31 31 13 8 27 17 6 9 7 10 16 13 4 10 7 4 3 4 20 9 16 18 21 30 24
44 40 48 51 52 48 44 39 33 28 30 24 22 13 9 12 9 17 30 30 10 14 14 36 21 8 6 4 5 7 4 5 4 3 16 14 5 5 6 4 7 11 30 34 26 13 32
43 42 42 46 49 46 42 35 29 23 29 30 21 22 15 11 28 9 6 24 22 16 11 12 31 13 6 5 4 4 6 1 3 3 3 3 2 9 8 8 9 20 22 34 8 15 47
43 44 42 40 41 42 39 33 25 21 31 30 18 22 15 13 47 41 20 22 26 16 7 30 19 15 9 8 6 6 6 9 8 10 3 4 2 3 2 6 12 35 16 12 17 40 50
43 45 38 35 31 32 34 31 21 19 31 26 27 11 18 32 36 49 61 68 65 43 25 12 9 17 14 5 8 7 7 6 8 5 11 6 3 3 5 9 26 34 29 34 53 53 71
Wind_Direction_500mb
11 11 9 7 5 5 2 360 357 354 350 344 338 335 330 324 318 313 311 309 308 306 303 288 279 282 288 278 262 239 259 261 226 204 215 253 267 247 222 235 256 255 257 255 252 248 259
9 8 9 7 6 6 4 3 0 357 352 345 338 336 335 329 323 320 316 313 312 312 304 282 276 278 285 256 245 233 289 243 235 232 275 277 274 284 285 289 271 269 259 255 256 255 256
7 8 8 8 8 6 4 2 3 359 354 349 344 341 340 336 331 332 328 330 332 318 296 284 271 272 271 245 175 239 289 246 264 257 268 274 324 321 320 325 295 294 296 295 283 287 262
5 6 6 8 9 5 4 2 1 360 356 354 351 349 348 346 342 348 353 355 346 326 294 265 270 275 263 222 240 235 235 244 251 264 272 280 304 315 300 295 305 306 296 289 285 285 278
360 3 5 5 7 6 2 1 2 0 358 357 355 352 353 353 356 359 359 351 355 351 322 263 258 270 270 287 225 231 225 234 248 237 250 263 281 289 285 279 289 265 261 261 270 242 245
355 358 1 3 4 5 1 0 360 1 360 356 355 354 352 353 357 353 339 323 317 294 308 274 212 280 267 256 218 219 220 234 262 273 275 238 248 239 273 236 250 255 244 244 248 260 247
350 354 357 359 1 2 3 360 358 359 360 357 353 352 353 352 353 356 354 337 343 332 220 231 238 251 294 22 150 200 209 236 248 271 264 276 211 233 237 236 234 248 265 271 279 297 326
349 348 353 356 357 358 360 1 358 357 357 356 351 350 353 351 341 334 340 334 351 311 297 277 269 254 257 281 270 211 224 240 214 234 250 257 252 242 246 256 261 266 265 285 306 307 305
349 348 346 351 353 354 357 359 358 355 354 353 351 344 342 338 323 316 307 304 344 327 296 296 241 241 236 235 247 263 199 224 229 262 257 247 257 267 253 265 264 292 296 308 293 295 294
339 346 344 345 349 351 352 355 356 355 351 351 347 336 329 321 317 317 306 337 326 323 303 252 177 235 190 197 244 235 231 206 221 246 261 265 272 281 281 275 270 287 291 284 262 274 261
333 337 343 342 344 348 349 350 352 353 351 348 346 334 311 312 312 330 351 338 324 335 310 149 171 147 177 185 269 209 212 233 243 257 266 267 284 297 298 282 266 266 267 273 314 322 343
329 331 338 342 342 344 346 347 347 348 350 345 345 329 312 277 275 337 331 321 313 279 253 191 151 197 189 205 229 255 185 215 241 260 265 270 276 275 275 281 270 279 322 347 339 353 292
326 329 332 339 340 345 344 345 343 343 347 341 345 331 310 255 261 323 345 327 333 229 354 13 333 343 308 304 249 226 212 203 204 220 241 257 269 290 337 321 263 234 128 286 311 288 254
319 325 329 335 338 347 346 344 341 339 343 339 343 334 335 290 260 19 326 335 255 280 326 285 2 340 309 295 288 276 304 268 235 302 352 247 291 299 21 139 281 307 124 238 201 221 279
314 319 326 329 327 352 346 346 341 337 340 341 340 335 300 72 129 72 306 271 254 298 326 345 342 315 340 332 354 348 343 308 331 59 329 351 264 290 198 198 173 203 217 219 270 273 357
308 312 317 324 324 328 338 342 342 339 339 342 339 335 310 220 165 229 194 248 288 284 334 4 335 322 336 335 332 332 324 63 359 8 73 3 309 274 315 198 166 185 168 220 342 193 224
306 309 311 314 322 317 323 332 334 332 336 342 343 325 180 166 221 230 223 255 286 310 335 339 317 306 297 303 296 303 323 336 38 354 68 90 138 299 343 342 351 343 327 327 188 188 196
305 306 304 310 313 316 321 327 331 333 336 345 347 308 238 224 238 217 237 300 334 335 322 335 298 317 336 341 331 327 319 337 58 23 32 70 244 278 257 260 347 23 51 91 257 211 267
304 303 304 307 307 312 326 332 333 329 344 343 328 278 295 268 275 322 320 339 333 322 340 323 336 321 346 315 303 268 302 317 101 108 166 156 217 301 316 282 82 67 307 148 180 216 223
309 303 303 305 304 307 319 326 330 335 328 338 316 304 347 317 318 12 337 323 320 314 295 345 12 357 313 312 338 320 322 338 189 147 173 211 233 236 241 272 184 260 271 285 140 260 285
303 305 305 306 303 305 316 320 330 330 329 325 287 311 12 329 335 321 304 300 290 300 9 17 357 319 313 338 330 307 324 340 335 132 129 99 273 308 300 305 300 289 257 251 244 235 222
297 299 301 302 299 306 310 316 328 332 336 316 308 351 336 305 308 316 302 310 332 332 6 328 291 317 314 301 288 315 355 348 292 1 309 181 251 264 285 298 288 289 286 275 242 239 254
288 292 297 297 296 298 304 314 325 334 338 319 290 320 334 285 309 314 314 334 319 322 324 322 329 340 323 325 346 322 301 285 270 280 292 288 308 353 272 331 316 300 13 12 309 298 22
287 286 290 292 294 296 300 313 324 328 329 322 317 324 284 275 329 304 299 305 330 324 302 293 285 260 345 324 318 293 265 248 236 241 220 237 289 23 280 322 278 61 31 44 343 348 2
302 283 282 287 292 290 297 307 317 322 322 313 324 258 288 292 310 297 325 318 318 310 297 304 239 67 328 322 282 286 39 29 316 289 354 93 75 296 243 278 284 8 11 326 347 312 22
301 296 285 284 289 294 300 306 312 303 307 305 312 234 254 310 262 263 329 320 337 319 320 21 48 4 6 275 324 331 287 80 254 79 33 31 163 175 345 334 294 31 334 349 295 263 359
298 295 289 284 285 290 297 308 311 281 292 305 299 243 239 253 280 322 275 284 299 315 296 355 343 331 276 328 300 249 276 35 4 189 236 270 287 210 237 248 268 7 2 341 19 309 328
299 296 289 283 287 286 292 304 307 268 281 294 297 238 237 249 279 281 253 299 319 311 320 330 336 11 339 3 359 336 340 344 19 357 102 117 290 294 4 274 293 11 5 9 297 316 325
298 298 291 283 287 282 286 301 299 253 270 295 307 269 235 243 266 282 274 269 269 248 299 310 313 26 5 12 13 329 322 317 326 301 28 55 36 270 193 245 310 343 331 346 335 327 319
Wind_Speed_850mb
58 60 65 66 60 57 56 56 54 52 50 50 49 48 47 44 39 33 29 24 20 22 15 11 11 11 12 11 27 9 6 4 8 12 8 18 34 37 16 19 40 21 25 54 60 68 69
57 61 65 67 62 59 58 56 55 55 55 53 53 50 46 43 35 25 21 17 15 14 12 9 9 10 11 13 12 13 13 14 12 11 11 25 27 32 19 19 10 28 38 38 58 54 53
55 59 63 67 62 61 62 60 57 60 59 55 50 49 46 40 27 18 14 11 10 9 7 9 8 11 18 40 5 11 7 13 7 14 28 28 30 19 31 19 33 39 18 20 24 19 11
52 57 61 64 65 62 63 64 64 64 63 55 49 45 44 33 21 13 9 8 9 8 7 8 9 11 20 3 13 27 23 14 19 23 21 29 24 23 25 34 36 16 16 11 14 15 26
50 54 58 62 65 64 61 62 65 68 67 56 50 43 39 28 17 12 8 7 10 10 4 6 7 11 22 12 22 21 26 29 24 26 17 19 20 18 30 12 14 11 17 18 23 28 28
49 52 56 59 63 66 64 61 63 65 68 59 52 42 34 22 15 15 13 11 17 8 9 12 11 13 18 20 21 19 24 25 26 14 22 26 24 9 9 6 14 17 16 22 31 32 26
49 52 56 59 62 64 67 63 62 63 65 61 52 43 31 16 15 15 18 17 18 2 17 21 14 22 31 4 9 13 20 20 18 24 12 33 8 13 26 27 33 33 34 36 25 24 26
45 51 53 57 61 63 66 65 62 61 60 60 49 43 27 14 12 12 19 17 23 26 33 35 52 53 51 32 15 25 20 27 22 17 20 15 19 30 37 31 30 28 24 16 16 29 22
40 47 54 55 59 63 65 68 66 63 59 56 52 38 24 17 16 19 23 18 29 33 12 40 41 44 41 23 31 35 34 36 18 19 23 21 24 33 30 20 19 17 11 11 23 30 29
45 42 49 55 57 61 65 66 69 65 62 57 52 36 27 23 23 27 33 25 27 32 6 12 18 12 17 17 16 37 34 32 18 25 27 19 20 33 27 28 7 16 17 28 31 19 11
47 47 46 52 56 59 65 68 69 70 66 62 53 44 25 24 26 15 23 34 28 13 8 15 14 24 16 23 18 35 32 28 19 22 19 27 24 27 23 26 14 22 18 24 9 13 12
45 48 47 51 56 59 62 68 71 72 72 69 60 52 35 19 25 17 36 37 21 3 10 8 18 18 17 33 34 31 29 34 29 15 22 25 42 23 29 30 26 17 6 15 15 5 11
44 48 49 48 55 57 64 67 72 73 73 74 68 58 42 27 27 9 28 25 4 7 15 7 4 3 10 16 20 28 28 22 19 14 16 27 33 25 16 25 22 15 4 5 7 10 23
45 44 49 48 52 57 65 70 73 76 72 73 70 55 25 13 9 9 20 6 8 17 15 19 19 26 21 23 24 29 22 20 20 11 13 9 25 20 9 9 2 38 4 6 11 9 16
45 45 43 47 48 56 66 74 78 77 76 76 71 42 10 7 13 5 9 5 9 12 34 21 23 15 16 34 23 27 23 11 19 22 10 4 12 30 17 17 26 20 11 19 18 19 4
43 43 44 41 41 55 65 72 76 83 77 75 75 38 18 7 12 7 3 10 10 23 26 21 14 15 23 27 27 24 14 8 12 10 13 5 18 19 24 10 5 12 12 9 2 8 11
42 44 45 39 38 39 68 67 72 85 80 69 59 24 18 7 12 9 5 10 28 46 26 3 15 23 20 22 22 23 20 27 18 13 6 6 6 15 22 10 20 13 8 5 14 9 9
41 44 44 43 43 38 48 61 65 81 80 66 32 7 11 6 5 9 6 19 32 38 41 16 5 13 15 22 15 24 26 8 12 12 9 8 2 6 13 22 13 8 13 9 1 7 9
40 39 42 43 43 40 42 56 68 66 74 80 56 16 8 10 5 9 19 24 31 27 27 16 7 14 16 18 15 14 19 23 9 7 10 11 9 7 13 9 6 8 5 7 9 12 15
45 43 41 40 44 43 45 49 63 63 55 70 19 7 17 28 22 15 20 24 25 39 31 12 10 20 18 14 14 13 17 16 4 12 31 12 7 10 9 16 6 4 12 18 10 6 5
42 40 38 39 44 48 53 50 55 67 49 44 11 8 25 9 21 32 29 19 28 30 22 33 13 20 17 11 14 15 18 17 26 17 7 5 6 11 18 24 27 26 26 26 27 27 18
48 48 45 42 43 45 48 50 61 62 41 24 17 14 21 29 32 30 23 16 28 22 18 18 12 17 11 10 13 15 12 12 8 7 5 6 6 10 14 22 29 31 32 34 34 38 33
54 50 47 44 42 43 46 50 59 49 36 13 18 22 13 14 16 20 16 38 33 23 12 30 22 12 14 15 27 31 32 29 20 12 9 6 4 10 8 16 29 16 13 8 15 13 14
53 52 47 45 44 41 44 50 48 41 31 22 14 14 13 8 6 16 40 45 32 33 24 38 27 12 13 30 35 34 45 38 30 22 23 9 7 5 9 13 4 5 27 14 18 9 19
46 48 51 51 49 46 48 42 39 35 31 21 12 4 9 8 12 27 35 33 36 43 31 31 13 8 27 17 6 9 7 10 16 13 4 10 7 4 3 4 20 9 16 18 21 30 24
44 40 48 51 52 48 44 39 33 28 30 24 22 13 9 12 9 17 30 30 10 14 14 36 21 8 6 4 5 7 4 5 4 3 16 14 5 5 6 4 7 11 30 34 26 13 32
43 42 42 46 49 46 42 35 29 23 29 30 21 22 15 11 28 9 6 24 22 16 11 12 31 13 6 5 4 4 6 1 3 3 3 3 2 9 8 8 9 20 22 34 8 15 47
43 44 42 40 41 42 39 33 25 21 31 30 18 22 15 13 47 41 20 22 26 16 7 30 19 15 9 8 6 6 6 9 8 10 3 4 2 3 2 6 12 35 16 12 17 40 50
43 45 38 35 31 32 34 31 21 19 31 26 27 11 18 32 36 49 61 68 65 43 25 12 9 17 14 5 8 7 7 6 8 5 11 6 3 3 5 9 26 34 29 34 53 53 71
Wind_Direction_850mb
11 11 9 7 5 5 2 360 357 354 350 344 338 335 330 324 318 313 311 309 308 306 303 288 279 282 288 278 262 239 259 261 226 204 215 253 267 247 222 235 256 255 257 255 252 248 259
9 8 9 7 6 6 4 3 0 357 352 345 338 336 335 329 323 320 316 313 312 312 304 282 276 278 285 256 245 233 289 243 235 232 275 277 274 284 285 289 271 269 259 255 256 255 256
7 8 8 8 8 6 4 2 3 359 354 349 344 341 340 336 331 332 328 330 332 318 296 284 271 272 271 245 175 239 289 246 264 257 268 274 324 321 320 325 295 294 296 295 283 287 262
5 6 6 8 9 5 4 2 1 360 356 354 351 349 348 346 342 348 353 355 346 326 294 265 270 275 263 222 240 235 235 244 251 264 272 280 304 315 300 295 305 306 296 289 285 285 278
360 3 5 5 7 6 2 1 2 0 358 357 355 352 353 353 356 359 359 351 355 351 322 263 258 270 270 287 225 231 225 234 248 237 250 263 281 289 285 279 289 265 261 261 270 242 245
355 358 1 3 4 5 1 0 360 1 360 356 355 354 352 353 357 353 339 323 317 294 308 274 212 280 267 256 218 219 220 234 262 273 275 238 248 239 273 236 250 255 244 244 248 260 247
350 354 357 359 1 2 3 360 358 359 360 357 353 352 353 352 353 356 354 337 343 332 220 231 238 251 294 22 150 200 209 236 248 271 264 276 211 233 237 236 234 248 265 271 279 297 326
349 348 353 356 357 358 360 1 358 357 357 356 351 350 353 351 341 334 340 334 351 311 297 277 269 254 257 281 270 211 224 240 214 234 250 257 252 242 246 256 261 266 265 285 306 307 305
349 348 346 351 353 354 357 359 358 355 354 353 351 344 342 338 323 316 307 304 344 327 296 296 241 241 236 235 247 263 199 224 229 262 257 247 257 267 253 265 264 292 296 308 293 295 294
339 346 344 345 349 351 352 355 356 355 351 351 347 336 329 321 317 317 306 337 326 323 303 252 177 235 190 197 244 235 231 206 221 246 261 265 272 281 281 275 270 287 291 284 262 274 261
333 337 343 342 344 348 349 350 352 353 351 348 346 334 311 312 312 330 351 338 324 335 310 149 171 147 177 185 269 209 212 233 243 257 266 267 284 297 298 282 266 266 267 273 314 322 343
329 331 338 342 342 344 346 347 347 348 350 345 345 329 312 277 275 337 331 321 313 279 253 191 151 197 189 205 229 255 185 215 241 260 265 270 276 275 275 281 270 279 322 347 339 353 292
326 329 332 339 340 345 344 345 343 343 347 341 345 331 310 255 261 323 345 327 333 229 354 13 333 343 308 304 249 226 212 203 204 220 241 257 269 290 337 321 263 234 128 286 311 288 254
319 325 329 335 338 347 346 344 341 339 343 339 343 334 335 290 260 19 326 335 255 280 326 285 2 340 309 295 288 276 304 268 235 302 352 247 291 299 21 139 281 307 124 238 201 221 279
314 319 326 329 327 352 346 346 341 337 340 341 340 335 300 72 129 72 306 271 254 298 326 345 342 315 340 332 354 348 343 308 331 59 329 351 264 290 198 198 173 203 217 219 270 273 357
308 312 317 324 324 328 338 342 342 339 339 342 339 335 310 220 165 229 194 248 288 284 334 4 335 322 336 335 332 332 324 63 359 8 73 3 309 274 315 198 166 185 168 220 342 193 224
306 309 311 314 322 317 323 332 334 332 336 342 343 325 180 166 221 230 223 255 286 310 335 339 317 306 297 303 296 303 323 336 38 354 68 90 138 299 343 342 351 343 327 327 188 188 196
305 306 304 310 313 316 321 327 331 333 336 345 347 308 238 224 238 217 237 300 334 335 322 335 298 317 336 341 331 327 319 337 58 23 32 70 244 278 257 260 347 23 51 91 257 211 267
304 303 304 307 307 312 326 332 333 329 344 343 328 278 295 268 275 322 320 339 333 322 340 323 336 321 346 315 303 268 302 317 101 108 166 156 217 301 316 282 82 67 307 148 180 216 223
309 303 303 305 304 307 319 326 330 335 328 338 316 304 347 317 318 12 337 323 320 314 295 345 12 357 313 312 338 320 322 338 189 147 173 211 233 236 241 272 184 260 271 285 140 260 285
303 305 305 306 303 305 316 320 330 330 329 325 287 311 12 329 335 321 304 300 290 300 9 17 357 319 313 338 330 307 324 340 335 132 129 99 273 308 300 305 300 289 257 251 244 235 222
297 299 301 302 299 306 310 316 328 332 336 316 308 351 336 305 308 316 302 310 332 332 6 328 291 317 314 301 288 315 355 348 292 1 309 181 251 264 285 298 288 289 286 275 242 239 254
288 292 297 297 296 298 304 314 325 334 338 319 290 320 334 285 309 314 314 334 319 322 324 322 329 340 323 325 346 322 301 285 270 280 292 288 308 353 272 331 316 300 13 12 309 298 22
287 286 290 292 294 296 300 313 324 328 329 322 317 324 284 275 329 304 299 305 330 324 302 293 285 260 345 324 318 293 265 248 236 241 220 237 289 23 280 322 278 61 31 44 343 348 2
302 283 282 287 292 290 297 307 317 322 322 313 324 258 288 292 310 297 325 318 318 310 297 304 239 67 328 322 282 286 39 29 316 289 354 93 75 296 243 278 284 8 11 326 347 312 22
301 296 285 284 289 294 300 306 312 303 307 305 312 234 254 310 262 263 329 320 337 319 320 21 48 4 6 275 324 331 287 80 254 79 33 31 163 175 345 334 294 31 334 349 295 263 359
298 295 289 284 285 290 297 308 311 281 292 305 299 243 239 253 280 322 275 284 299 315 296 355 343 331 276 328 300 249 276 35 4 189 236 270 287 210 237 248 268 7 2 341 19 309 328
299 296 289 283 287 286 292 304 307 268 281 294 297 238 237 249 279 281 253 299 319 311 320 330 336 11 339 3 359 336 340 344 19 357 102 117 290 294 4 274 293 11 5 9 297 316 325
298 298 291 283 287 282 286 301 299 253 270 295 307 269 235 243 266 282 274 269 269 248 299 310 313 26 5 12 13 329 322 317 326 301 28 55 36 270 193 245 310 343 331 346 335 327 319